Tracking 35331 objects as of 14-Sep-2026
HD Live streaming from Space Station
objects crossing your sky now

FREGAT DEB


FREGAT DEB is no longer on orbit


NORAD ID: 55980
Int'l Code: 2011-037PU
Launch date: July 18, 2011
Source: Commonwealth of Independent States (former USSR) (CIS)
Launch site: TYURATAM MISSILE AND SPACE COMPLEX (TTMTR)
Decay date: 2024-12-31

Note: This is SATELLITE DEBRIS
Your satellite tracking list
Your tracking list is empty




NASA's NSSDC Master Catalog

Two Line Element Set (TLE):
1 55980U 11037PU  24357.49201550  .06057910  00000-0  19713+1 0  9995
2 55980  49.1743 173.5413 0491118 140.7523 223.0063 13.82191963 28286
Source of the keplerian elements: AFSPC